Year,Month,Day,Hour,Minute,Value (Times are PST for temperature in C)
2017,09,04,00,00,19.50
2017,09,04,00,01,19.50
2017,09,04,00,02,19.50
2017,09,04,00,03,19.50
2017,09,04,00,04,19.40
2017,09,04,00,05,19.40
2017,09,04,00,06,19.30
2017,09,04,00,07,19.30
2017,09,04,00,08,19.20
2017,09,04,00,09,19.20
2017,09,04,00,10,19.20
2017,09,04,00,11,19.10
2017,09,04,00,12,19.10
2017,09,04,00,13,19.00
2017,09,04,00,14,19.00
2017,09,04,00,15,18.90
2017,09,04,00,16,18.90
2017,09,04,00,17,18.80
2017,09,04,00,18,18.80
2017,09,04,00,19,18.80
2017,09,04,00,20,18.80
2017,09,04,00,21,18.70
2017,09,04,00,22,18.70
2017,09,04,00,23,18.70
2017,09,04,00,24,18.80
2017,09,04,00,25,18.80
2017,09,04,00,26,18.80
2017,09,04,00,27,18.80
2017,09,04,00,28,18.80
2017,09,04,00,29,18.70
2017,09,04,00,30,18.70
2017,09,04,00,31,18.70
2017,09,04,00,32,18.70
2017,09,04,00,33,18.60
2017,09,04,00,34,18.60
2017,09,04,00,35,18.60
2017,09,04,00,36,18.50
2017,09,04,00,37,18.50
2017,09,04,00,38,18.50
2017,09,04,00,39,18.50
2017,09,04,00,40,18.50
2017,09,04,00,41,18.50
2017,09,04,00,42,18.50
2017,09,04,00,43,18.50
2017,09,04,00,44,18.50
2017,09,04,00,45,18.60
2017,09,04,00,46,18.60
2017,09,04,00,47,18.60
2017,09,04,00,48,18.60
2017,09,04,00,49,18.60
2017,09,04,00,50,18.60
2017,09,04,00,51,18.60
2017,09,04,00,52,18.60
2017,09,04,00,53,18.60
2017,09,04,00,54,18.50
2017,09,04,00,55,18.50
2017,09,04,00,56,18.40
2017,09,04,00,57,18.40
2017,09,04,00,58,18.40
2017,09,04,00,59,18.40
2017,09,04,01,00,18.30
2017,09,04,01,01,18.30
2017,09,04,01,02,18.30
2017,09,04,01,03,18.20
2017,09,04,01,04,18.20
2017,09,04,01,05,18.20
2017,09,04,01,06,18.10
2017,09,04,01,07,18.10
2017,09,04,01,08,18.10
2017,09,04,01,09,18.00
2017,09,04,01,10,18.00
2017,09,04,01,11,18.00
2017,09,04,01,12,17.90
2017,09,04,01,13,17.90
2017,09,04,01,14,17.90
2017,09,04,01,15,17.90
2017,09,04,01,16,17.90
2017,09,04,01,17,17.90
2017,09,04,01,18,17.90
2017,09,04,01,19,17.90
2017,09,04,01,20,17.90
2017,09,04,01,21,17.90
2017,09,04,01,22,17.80
2017,09,04,01,23,17.80
2017,09,04,01,24,17.80
2017,09,04,01,25,17.80
2017,09,04,01,26,17.80
2017,09,04,01,27,17.80
2017,09,04,01,28,17.80
2017,09,04,01,29,17.70
2017,09,04,01,30,17.70
2017,09,04,01,31,17.70
2017,09,04,01,32,17.70
2017,09,04,01,33,17.70
2017,09,04,01,34,17.80
2017,09,04,01,35,17.80
2017,09,04,01,36,17.80
2017,09,04,01,37,17.90
2017,09,04,01,38,17.90
2017,09,04,01,39,17.90
2017,09,04,01,40,18.00
2017,09,04,01,41,18.00
2017,09,04,01,42,18.10
2017,09,04,01,43,18.10
2017,09,04,01,44,18.10
2017,09,04,01,45,18.20
2017,09,04,01,46,18.20
2017,09,04,01,47,18.20
2017,09,04,01,48,18.30
2017,09,04,01,49,18.30
2017,09,04,01,50,18.40
2017,09,04,01,51,18.40
2017,09,04,01,52,18.40
2017,09,04,01,53,18.40
2017,09,04,01,54,18.40
2017,09,04,01,55,18.40
2017,09,04,01,56,18.40
2017,09,04,01,57,18.40
2017,09,04,01,58,18.30
2017,09,04,01,59,18.30
2017,09,04,02,00,18.20
2017,09,04,02,01,18.20
2017,09,04,02,02,18.10
2017,09,04,02,03,18.10
2017,09,04,02,04,18.00
2017,09,04,02,05,18.00
2017,09,04,02,06,17.90
2017,09,04,02,07,17.90
2017,09,04,02,08,17.80
2017,09,04,02,09,17.80
2017,09,04,02,10,17.70
2017,09,04,02,11,17.70
2017,09,04,02,12,17.70
2017,09,04,02,13,17.70
2017,09,04,02,14,17.60
2017,09,04,02,15,17.60
2017,09,04,02,16,17.60
2017,09,04,02,17,17.60
2017,09,04,02,18,17.60
2017,09,04,02,19,17.60
2017,09,04,02,20,17.60
2017,09,04,02,21,17.60
2017,09,04,02,22,17.60
2017,09,04,02,23,17.60
2017,09,04,02,24,17.60
2017,09,04,02,25,17.50
2017,09,04,02,26,17.50
2017,09,04,02,27,17.50
2017,09,04,02,28,17.50
2017,09,04,02,29,17.60
2017,09,04,02,30,17.70
2017,09,04,02,31,17.80
2017,09,04,02,32,17.90
2017,09,04,02,33,18.10
2017,09,04,02,34,18.20
2017,09,04,02,35,18.40
2017,09,04,02,36,18.60
2017,09,04,02,37,18.70
2017,09,04,02,38,18.80
2017,09,04,02,39,19.00
2017,09,04,02,40,19.10
2017,09,04,02,41,19.20
2017,09,04,02,42,19.20
2017,09,04,02,43,19.20
2017,09,04,02,44,19.10
2017,09,04,02,45,19.10
2017,09,04,02,46,19.00
2017,09,04,02,47,18.90
2017,09,04,02,48,18.80
2017,09,04,02,49,18.70
2017,09,04,02,50,18.60
2017,09,04,02,51,18.50
2017,09,04,02,52,18.40
2017,09,04,02,53,18.40
2017,09,04,02,54,18.30
2017,09,04,02,55,18.30
2017,09,04,02,56,18.30
2017,09,04,02,57,18.40
2017,09,04,02,58,18.40
2017,09,04,02,59,18.40
2017,09,04,03,00,18.40
2017,09,04,03,01,18.40
2017,09,04,03,02,18.40
2017,09,04,03,03,18.40
2017,09,04,03,04,18.40
2017,09,04,03,05,18.40
2017,09,04,03,06,18.30
2017,09,04,03,07,18.30
2017,09,04,03,08,18.30
2017,09,04,03,09,18.40
2017,09,04,03,10,18.40
2017,09,04,03,11,18.50
2017,09,04,03,12,18.60
2017,09,04,03,13,18.60
2017,09,04,03,14,18.70
2017,09,04,03,15,18.70
2017,09,04,03,16,18.70
2017,09,04,03,17,18.80
2017,09,04,03,18,18.80
2017,09,04,03,19,18.80
2017,09,04,03,20,18.80
2017,09,04,03,21,18.80
2017,09,04,03,22,18.80
2017,09,04,03,23,18.70
2017,09,04,03,24,18.70
2017,09,04,03,25,18.70
2017,09,04,03,26,18.60
2017,09,04,03,27,18.60
2017,09,04,03,28,18.60
2017,09,04,03,29,18.50
2017,09,04,03,30,18.40
2017,09,04,03,31,18.40
2017,09,04,03,32,18.30
2017,09,04,03,33,18.30
2017,09,04,03,34,18.20
2017,09,04,03,35,18.20
2017,09,04,03,36,18.20
2017,09,04,03,37,18.20
2017,09,04,03,38,18.20
2017,09,04,03,39,18.20
2017,09,04,03,40,18.30
2017,09,04,03,41,18.30
2017,09,04,03,42,18.30
2017,09,04,03,43,18.30
2017,09,04,03,44,18.30
2017,09,04,03,45,18.40
2017,09,04,03,46,18.40
2017,09,04,03,47,18.40
2017,09,04,03,48,18.40
2017,09,04,03,49,18.40
2017,09,04,03,50,18.40
2017,09,04,03,51,18.40
2017,09,04,03,52,18.40
2017,09,04,03,53,18.40
2017,09,04,03,54,18.40
2017,09,04,03,55,18.40
2017,09,04,03,56,18.40
2017,09,04,03,57,18.40
2017,09,04,03,58,18.30
2017,09,04,03,59,18.30
2017,09,04,04,00,18.30
2017,09,04,04,01,18.30
2017,09,04,04,02,18.30
2017,09,04,04,03,18.30
2017,09,04,04,04,18.30
2017,09,04,04,05,18.30
2017,09,04,04,06,18.40
2017,09,04,04,07,18.40
2017,09,04,04,08,18.40
2017,09,04,04,09,18.40
2017,09,04,04,10,18.40
2017,09,04,04,11,18.40
2017,09,04,04,12,18.40
2017,09,04,04,13,18.40
2017,09,04,04,14,18.40
2017,09,04,04,15,18.30
2017,09,04,04,16,18.20
2017,09,04,04,17,18.10
2017,09,04,04,18,18.10
2017,09,04,04,19,18.00
2017,09,04,04,20,18.00
2017,09,04,04,21,17.90
2017,09,04,04,22,17.90
2017,09,04,04,23,17.80
2017,09,04,04,24,17.80
2017,09,04,04,25,17.80
2017,09,04,04,26,17.80
2017,09,04,04,27,17.80
2017,09,04,04,28,17.80
2017,09,04,04,29,17.80
2017,09,04,04,30,17.80
2017,09,04,04,31,17.70
2017,09,04,04,32,17.70
2017,09,04,04,33,17.70
2017,09,04,04,34,17.70
2017,09,04,04,35,17.70
2017,09,04,04,36,17.70
2017,09,04,04,37,17.70
2017,09,04,04,38,17.80
2017,09,04,04,39,17.80
2017,09,04,04,40,17.90
2017,09,04,04,41,18.00
2017,09,04,04,42,18.10
2017,09,04,04,43,18.20
2017,09,04,04,44,18.30
2017,09,04,04,45,18.40
2017,09,04,04,46,18.40
2017,09,04,04,47,18.40
2017,09,04,04,48,18.40
2017,09,04,04,49,18.30
2017,09,04,04,50,18.30
2017,09,04,04,51,18.20
2017,09,04,04,52,18.20
2017,09,04,04,53,18.10
2017,09,04,04,54,18.10
2017,09,04,04,55,18.10
2017,09,04,04,56,18.10
2017,09,04,04,57,18.10
2017,09,04,04,58,18.10
2017,09,04,04,59,18.10
2017,09,04,05,00,18.20
2017,09,04,05,01,18.20
2017,09,04,05,02,18.30
2017,09,04,05,03,18.40
2017,09,04,05,04,18.40
2017,09,04,05,05,18.50
2017,09,04,05,06,18.60
2017,09,04,05,07,18.70
2017,09,04,05,08,18.70
2017,09,04,05,09,18.80
2017,09,04,05,10,18.90
2017,09,04,05,11,18.90
2017,09,04,05,12,18.90
2017,09,04,05,13,18.90
2017,09,04,05,14,18.90
2017,09,04,05,15,18.80
2017,09,04,05,16,18.80
2017,09,04,05,17,18.80
2017,09,04,05,18,18.80
2017,09,04,05,19,18.80
2017,09,04,05,20,18.80
2017,09,04,05,21,18.80
2017,09,04,05,22,18.80
2017,09,04,05,23,18.90
2017,09,04,05,24,19.00
2017,09,04,05,25,19.10
2017,09,04,05,26,19.10
2017,09,04,05,27,19.20
2017,09,04,05,28,19.30
2017,09,04,05,29,19.30
2017,09,04,05,30,19.40
2017,09,04,05,31,19.50
2017,09,04,05,32,19.60
2017,09,04,05,33,19.60
2017,09,04,05,34,19.70
2017,09,04,05,35,19.70
2017,09,04,05,36,19.60
2017,09,04,05,37,19.60
2017,09,04,05,38,19.50
2017,09,04,05,39,19.40
2017,09,04,05,40,19.20
2017,09,04,05,41,19.10
2017,09,04,05,42,19.00
2017,09,04,05,43,18.90
2017,09,04,05,44,18.80
2017,09,04,05,45,18.80
2017,09,04,05,46,18.70
2017,09,04,05,47,18.70
2017,09,04,05,48,18.70
2017,09,04,05,49,18.70
2017,09,04,05,50,18.60
2017,09,04,05,51,18.60
2017,09,04,05,52,18.60
2017,09,04,05,53,18.50
2017,09,04,05,54,18.50
2017,09,04,05,55,18.40
2017,09,04,05,56,18.40
2017,09,04,05,57,18.30
2017,09,04,05,58,18.30
2017,09,04,05,59,18.30
2017,09,04,06,00,18.30
2017,09,04,06,01,18.20
2017,09,04,06,02,18.20
2017,09,04,06,03,18.20
2017,09,04,06,04,18.20
2017,09,04,06,05,18.20
2017,09,04,06,06,18.20
2017,09,04,06,07,18.20
2017,09,04,06,08,18.20
2017,09,04,06,09,18.30
2017,09,04,06,10,18.40
2017,09,04,06,11,18.50
2017,09,04,06,12,18.60
2017,09,04,06,13,18.70
2017,09,04,06,14,18.70
2017,09,04,06,15,18.80
2017,09,04,06,16,18.80
2017,09,04,06,17,18.80
2017,09,04,06,18,18.80
2017,09,04,06,19,18.70
2017,09,04,06,20,18.70
2017,09,04,06,21,18.70
2017,09,04,06,22,18.60
2017,09,04,06,23,18.60
2017,09,04,06,24,18.50
2017,09,04,06,25,18.40
2017,09,04,06,26,18.30
2017,09,04,06,27,18.30
2017,09,04,06,28,18.20
2017,09,04,06,29,18.20
2017,09,04,06,30,18.10
2017,09,04,06,31,18.10
2017,09,04,06,32,18.00
2017,09,04,06,33,18.00
2017,09,04,06,34,17.90
2017,09,04,06,35,17.90
2017,09,04,06,36,17.90
2017,09,04,06,37,17.80
2017,09,04,06,38,17.80
2017,09,04,06,39,17.80
2017,09,04,06,40,17.70
2017,09,04,06,41,17.70
2017,09,04,06,42,17.60
2017,09,04,06,43,17.60
2017,09,04,06,44,17.50
2017,09,04,06,45,17.50
2017,09,04,06,46,17.40
2017,09,04,06,47,17.40
2017,09,04,06,48,17.40
2017,09,04,06,49,17.30
2017,09,04,06,50,17.30
2017,09,04,06,51,17.30
2017,09,04,06,52,17.30
2017,09,04,06,53,17.20
2017,09,04,06,54,17.20
2017,09,04,06,55,17.20
2017,09,04,06,56,17.20
2017,09,04,06,57,17.20
2017,09,04,06,58,17.20
2017,09,04,06,59,17.20
2017,09,04,07,00,17.20
2017,09,04,07,01,17.20
2017,09,04,07,02,17.20
2017,09,04,07,03,17.20
2017,09,04,07,04,17.20
2017,09,04,07,05,17.20
2017,09,04,07,06,17.20
2017,09,04,07,07,17.30
2017,09,04,07,08,17.30
2017,09,04,07,09,17.30
2017,09,04,07,10,17.30
2017,09,04,07,11,17.30
2017,09,04,07,12,17.40
2017,09,04,07,13,17.40
2017,09,04,07,14,17.40
2017,09,04,07,15,17.40
2017,09,04,07,16,17.50
2017,09,04,07,17,17.50
2017,09,04,07,18,17.50
2017,09,04,07,19,17.50
2017,09,04,07,20,17.50
2017,09,04,07,21,17.50
2017,09,04,07,22,17.50
2017,09,04,07,23,17.50
2017,09,04,07,24,17.60
2017,09,04,07,25,17.60
2017,09,04,07,26,17.60
2017,09,04,07,27,17.60
2017,09,04,07,28,17.60
2017,09,04,07,29,17.70
2017,09,04,07,30,17.70
2017,09,04,07,31,17.70
2017,09,04,07,32,17.70
2017,09,04,07,33,17.70
2017,09,04,07,34,17.70
2017,09,04,07,35,17.70
2017,09,04,07,36,17.70
2017,09,04,07,37,17.70
2017,09,04,07,38,17.70
2017,09,04,07,39,17.70
2017,09,04,07,40,17.70
2017,09,04,07,41,17.70
2017,09,04,07,42,17.70
2017,09,04,07,43,17.70
2017,09,04,07,44,17.70
2017,09,04,07,45,17.70
2017,09,04,07,46,17.70
2017,09,04,07,47,17.70
2017,09,04,07,48,17.60
2017,09,04,07,49,17.60
2017,09,04,07,50,17.60
2017,09,04,07,51,17.60
2017,09,04,07,52,17.60
2017,09,04,07,53,17.60
2017,09,04,07,54,17.60
2017,09,04,07,55,17.60
2017,09,04,07,56,17.60
2017,09,04,07,57,17.60
2017,09,04,07,58,17.50
2017,09,04,07,59,17.60
2017,09,04,08,00,17.60
2017,09,04,08,01,17.60
2017,09,04,08,02,17.60
2017,09,04,08,03,17.70
2017,09,04,08,04,17.70
2017,09,04,08,05,17.70
2017,09,04,08,06,17.80
2017,09,04,08,07,17.80
2017,09,04,08,08,17.80
2017,09,04,08,09,17.90
2017,09,04,08,10,17.90
2017,09,04,08,11,17.90
2017,09,04,08,12,17.90
2017,09,04,08,13,18.00
2017,09,04,08,14,18.00
2017,09,04,08,15,18.00
2017,09,04,08,16,18.10
2017,09,04,08,17,18.00
2017,09,04,08,18,18.00
2017,09,04,08,19,18.00
2017,09,04,08,20,17.90
2017,09,04,08,21,17.90
2017,09,04,08,22,17.90
2017,09,04,08,23,17.90
2017,09,04,08,24,17.90
2017,09,04,08,25,17.90
2017,09,04,08,26,17.90
2017,09,04,08,27,17.80
2017,09,04,08,28,17.80
2017,09,04,08,29,17.80
2017,09,04,08,30,17.80
2017,09,04,08,31,17.80
2017,09,04,08,32,17.80
2017,09,04,08,33,17.80
2017,09,04,08,34,17.80
2017,09,04,08,35,17.80
2017,09,04,08,36,17.80
2017,09,04,08,37,17.80
2017,09,04,08,38,17.90
2017,09,04,08,39,17.90
2017,09,04,08,40,17.90
2017,09,04,08,41,17.90
2017,09,04,08,42,17.90
2017,09,04,08,43,17.90
2017,09,04,08,44,17.90
2017,09,04,08,45,17.90
2017,09,04,08,46,18.00
2017,09,04,08,47,18.00
2017,09,04,08,48,18.00
2017,09,04,08,49,18.10
2017,09,04,08,50,18.10
2017,09,04,08,51,18.10
2017,09,04,08,52,18.20
2017,09,04,08,53,18.20
2017,09,04,08,54,18.30
2017,09,04,08,55,18.30
2017,09,04,08,56,18.40
2017,09,04,08,57,18.40
2017,09,04,08,58,18.50
2017,09,04,08,59,18.50
2017,09,04,09,00,18.60
2017,09,04,09,01,18.60
2017,09,04,09,02,18.60
2017,09,04,09,03,18.60
2017,09,04,09,04,18.60
2017,09,04,09,05,18.60
2017,09,04,09,06,18.60
2017,09,04,09,07,18.60
2017,09,04,09,08,18.50
2017,09,04,09,09,18.50
2017,09,04,09,10,18.50
2017,09,04,09,11,18.40
2017,09,04,09,12,18.40
2017,09,04,09,13,18.50
2017,09,04,09,14,18.50
2017,09,04,09,15,18.50
2017,09,04,09,16,18.60
2017,09,04,09,17,18.60
2017,09,04,09,18,18.60
2017,09,04,09,19,18.60
2017,09,04,09,20,18.60
2017,09,04,09,21,18.60
2017,09,04,09,22,18.50
2017,09,04,09,23,18.50
2017,09,04,09,24,18.40
2017,09,04,09,25,18.40
2017,09,04,09,26,18.40
2017,09,04,09,27,18.40
2017,09,04,09,28,18.40
2017,09,04,09,29,18.40
2017,09,04,09,30,18.40
2017,09,04,09,31,18.50
2017,09,04,09,32,18.50
2017,09,04,09,33,18.50
2017,09,04,09,34,18.40
2017,09,04,09,35,18.50
2017,09,04,09,36,18.50
2017,09,04,09,37,18.50
2017,09,04,09,38,18.50
2017,09,04,09,39,18.60
2017,09,04,09,40,18.60
2017,09,04,09,41,18.60
2017,09,04,09,42,18.60
2017,09,04,09,43,18.60
2017,09,04,09,44,18.60
2017,09,04,09,45,18.60
2017,09,04,09,46,18.60
2017,09,04,09,47,18.70
2017,09,04,09,48,18.70
2017,09,04,09,49,18.70
2017,09,04,09,50,18.70
2017,09,04,09,51,18.70
2017,09,04,09,52,18.70
2017,09,04,09,53,18.70
2017,09,04,09,54,18.70
2017,09,04,09,55,18.70
2017,09,04,09,56,18.70
2017,09,04,09,57,18.70
2017,09,04,09,58,18.70
2017,09,04,09,59,18.70
2017,09,04,10,00,18.80
2017,09,04,10,01,18.80
2017,09,04,10,02,18.80
2017,09,04,10,03,18.80
2017,09,04,10,04,18.80
2017,09,04,10,05,18.80
2017,09,04,10,06,18.80
2017,09,04,10,07,18.80
2017,09,04,10,08,18.70
2017,09,04,10,09,18.80
2017,09,04,10,10,18.80
2017,09,04,10,11,18.80
2017,09,04,10,12,18.90
2017,09,04,10,13,18.90
2017,09,04,10,14,19.00
2017,09,04,10,15,19.10
2017,09,04,10,16,19.10
2017,09,04,10,17,19.10
2017,09,04,10,18,19.10
2017,09,04,10,19,19.10
2017,09,04,10,20,19.20
2017,09,04,10,21,19.20
2017,09,04,10,22,19.20
2017,09,04,10,23,19.30
2017,09,04,10,24,19.30
2017,09,04,10,25,19.40
2017,09,04,10,26,19.40
2017,09,04,10,27,19.40
2017,09,04,10,28,19.50
2017,09,04,10,29,19.60
2017,09,04,10,30,19.60
2017,09,04,10,31,19.60
2017,09,04,10,32,19.60
2017,09,04,10,33,19.60
2017,09,04,10,34,19.60
2017,09,04,10,35,19.60
2017,09,04,10,36,19.60
2017,09,04,10,37,19.60
2017,09,04,10,38,19.60
2017,09,04,10,39,19.70
2017,09,04,10,40,19.70
2017,09,04,10,41,19.70
2017,09,04,10,42,19.70
2017,09,04,10,43,19.70
2017,09,04,10,44,19.70
2017,09,04,10,45,19.70
2017,09,04,10,46,19.70
2017,09,04,10,47,19.80
2017,09,04,10,48,19.80
2017,09,04,10,49,19.90
2017,09,04,10,50,20.00
2017,09,04,10,51,20.10
2017,09,04,10,52,20.20
2017,09,04,10,53,20.20
2017,09,04,10,54,20.30
2017,09,04,10,55,20.40
2017,09,04,10,56,20.50
2017,09,04,10,57,20.50
2017,09,04,10,58,20.60
2017,09,04,10,59,20.60
2017,09,04,11,00,20.50
2017,09,04,11,01,20.50
2017,09,04,11,02,20.50
2017,09,04,11,03,20.50
2017,09,04,11,04,20.50
2017,09,04,11,05,20.50
2017,09,04,11,06,20.60
2017,09,04,11,07,20.60
2017,09,04,11,08,20.70
2017,09,04,11,09,20.70
2017,09,04,11,10,20.70
2017,09,04,11,11,20.80
2017,09,04,11,12,20.80
2017,09,04,11,13,20.90
2017,09,04,11,14,21.00
2017,09,04,11,15,21.10
2017,09,04,11,16,21.20
2017,09,04,11,17,21.30
2017,09,04,11,18,21.40
2017,09,04,11,19,21.50
2017,09,04,11,20,21.60
2017,09,04,11,21,21.70
2017,09,04,11,22,21.70
2017,09,04,11,23,21.70
2017,09,04,11,24,21.80
2017,09,04,11,25,21.80
2017,09,04,11,26,21.80
2017,09,04,11,27,21.80
2017,09,04,11,28,21.80
2017,09,04,11,29,21.80
2017,09,04,11,30,21.80
2017,09,04,11,31,21.80
2017,09,04,11,32,21.80
2017,09,04,11,33,21.80
2017,09,04,11,34,21.90
2017,09,04,11,35,21.90
2017,09,04,11,36,22.00
2017,09,04,11,37,22.00
2017,09,04,11,38,22.10
2017,09,04,11,39,22.20
2017,09,04,11,40,22.30
2017,09,04,11,41,22.30
2017,09,04,11,42,22.40
2017,09,04,11,43,22.50
2017,09,04,11,44,22.60
2017,09,04,11,45,22.70
2017,09,04,11,46,22.70
2017,09,04,11,47,22.80
2017,09,04,11,48,22.90
2017,09,04,11,49,22.90
2017,09,04,11,50,23.00
2017,09,04,11,51,23.00
2017,09,04,11,52,23.00
2017,09,04,11,53,22.90
2017,09,04,11,54,22.90
2017,09,04,11,55,22.90
2017,09,04,11,56,22.90
2017,09,04,11,57,23.00
2017,09,04,11,58,23.00
2017,09,04,11,59,23.10
2017,09,04,12,00,23.10
2017,09,04,12,01,23.10
2017,09,04,12,02,23.10
2017,09,04,12,03,23.20
2017,09,04,12,04,23.30
2017,09,04,12,05,23.30
2017,09,04,12,06,23.30
2017,09,04,12,07,23.30
2017,09,04,12,08,23.30
2017,09,04,12,09,23.30
2017,09,04,12,10,23.30
2017,09,04,12,11,23.30
2017,09,04,12,12,23.30
2017,09,04,12,13,23.30
2017,09,04,12,14,23.30
2017,09,04,12,15,23.30
2017,09,04,12,16,23.30
2017,09,04,12,17,23.40
2017,09,04,12,18,23.40
2017,09,04,12,19,23.40
2017,09,04,12,20,23.50
2017,09,04,12,21,23.50
2017,09,04,12,22,23.50
2017,09,04,12,23,23.50
2017,09,04,12,24,23.50
2017,09,04,12,25,23.50
2017,09,04,12,26,23.50
2017,09,04,12,27,23.50
2017,09,04,12,28,23.60
2017,09,04,12,29,23.60
2017,09,04,12,30,23.70
2017,09,04,12,31,23.80
2017,09,04,12,32,23.90
2017,09,04,12,33,23.90
2017,09,04,12,34,23.90
2017,09,04,12,35,24.00
2017,09,04,12,36,24.00
2017,09,04,12,37,24.00
2017,09,04,12,38,24.10
2017,09,04,12,39,24.10
2017,09,04,12,40,24.20
2017,09,04,12,41,24.20
2017,09,04,12,42,24.30
2017,09,04,12,43,24.30
2017,09,04,12,44,24.40
2017,09,04,12,45,24.40
2017,09,04,12,46,24.50
2017,09,04,12,47,24.60
2017,09,04,12,48,24.70
2017,09,04,12,49,24.80
2017,09,04,12,50,24.80
2017,09,04,12,51,24.70
2017,09,04,12,52,24.70
2017,09,04,12,53,24.70
2017,09,04,12,54,24.70
2017,09,04,12,55,24.60
2017,09,04,12,56,24.60
2017,09,04,12,57,24.50
2017,09,04,12,58,24.50
2017,09,04,12,59,24.40
2017,09,04,13,00,24.40
2017,09,04,13,01,24.30
2017,09,04,13,02,24.30
2017,09,04,13,03,24.30
2017,09,04,13,04,24.40
2017,09,04,13,05,24.40
2017,09,04,13,06,24.40
2017,09,04,13,07,24.50
2017,09,04,13,08,24.60
2017,09,04,13,09,24.70
2017,09,04,13,10,24.80
2017,09,04,13,11,24.90
2017,09,04,13,12,25.00
2017,09,04,13,13,25.10
2017,09,04,13,14,25.10
2017,09,04,13,15,25.20
2017,09,04,13,16,25.20
2017,09,04,13,17,25.20
2017,09,04,13,18,25.30
2017,09,04,13,19,25.40
2017,09,04,13,20,25.50
2017,09,04,13,21,25.60
2017,09,04,13,22,25.80
2017,09,04,13,23,25.90
2017,09,04,13,24,26.00
2017,09,04,13,25,26.10
2017,09,04,13,26,26.10
2017,09,04,13,27,26.10
2017,09,04,13,28,26.10
2017,09,04,13,29,26.10
2017,09,04,13,30,26.10
2017,09,04,13,31,26.20
2017,09,04,13,32,26.20
2017,09,04,13,33,26.20
2017,09,04,13,34,26.30
2017,09,04,13,35,26.40
2017,09,04,13,36,26.50
2017,09,04,13,37,26.50
2017,09,04,13,38,26.50
2017,09,04,13,39,26.50
2017,09,04,13,40,26.60
2017,09,04,13,41,26.70
2017,09,04,13,42,26.70
2017,09,04,13,43,26.70
2017,09,04,13,44,26.70
2017,09,04,13,45,26.70
2017,09,04,13,46,26.80
2017,09,04,13,47,26.80
2017,09,04,13,48,26.80
2017,09,04,13,49,26.80
2017,09,04,13,50,26.90
2017,09,04,13,51,26.90
2017,09,04,13,52,27.00
2017,09,04,13,53,27.00
2017,09,04,13,54,27.00
2017,09,04,13,55,26.90
2017,09,04,13,56,26.90
2017,09,04,13,57,26.80
2017,09,04,13,58,26.70
2017,09,04,13,59,26.70
2017,09,04,14,00,26.60
2017,09,04,14,01,26.60
2017,09,04,14,02,26.50
2017,09,04,14,03,26.50
2017,09,04,14,04,26.60
2017,09,04,14,05,26.60
2017,09,04,14,06,26.70
2017,09,04,14,07,26.70
2017,09,04,14,08,26.70
2017,09,04,14,09,26.80
2017,09,04,14,10,26.80
2017,09,04,14,11,26.90
2017,09,04,14,12,27.00
2017,09,04,14,13,27.10
2017,09,04,14,14,27.10
2017,09,04,14,15,27.10
2017,09,04,14,16,27.10
2017,09,04,14,17,27.20
2017,09,04,14,18,27.20
2017,09,04,14,19,27.20
2017,09,04,14,20,27.30
2017,09,04,14,21,27.30
2017,09,04,14,22,27.20
2017,09,04,14,23,27.20
2017,09,04,14,24,27.20
2017,09,04,14,25,27.20
2017,09,04,14,26,27.20
2017,09,04,14,27,27.20
2017,09,04,14,28,27.20
2017,09,04,14,29,27.20
2017,09,04,14,30,27.20
2017,09,04,14,31,27.30
2017,09,04,14,32,27.30
2017,09,04,14,33,27.30
2017,09,04,14,34,27.30
2017,09,04,14,35,27.40
2017,09,04,14,36,27.40
2017,09,04,14,37,27.40
2017,09,04,14,38,27.40
2017,09,04,14,39,27.40
2017,09,04,14,40,27.30
2017,09,04,14,41,27.30
2017,09,04,14,42,27.30
2017,09,04,14,43,27.30
2017,09,04,14,44,27.30
2017,09,04,14,45,27.30
2017,09,04,14,46,27.30
2017,09,04,14,47,27.40
2017,09,04,14,48,27.40
2017,09,04,14,49,27.50
2017,09,04,14,50,27.60
2017,09,04,14,51,27.70
2017,09,04,14,52,27.80
2017,09,04,14,53,27.90
2017,09,04,14,54,28.00
2017,09,04,14,55,28.10
2017,09,04,14,56,28.20
2017,09,04,14,57,28.30
2017,09,04,14,58,28.30
2017,09,04,14,59,28.40
2017,09,04,15,00,28.40
2017,09,04,15,01,28.40
2017,09,04,15,02,28.40
2017,09,04,15,03,28.30
2017,09,04,15,04,28.30
2017,09,04,15,05,28.40
2017,09,04,15,06,28.40
2017,09,04,15,07,28.50
2017,09,04,15,08,28.60
2017,09,04,15,09,28.70
2017,09,04,15,10,28.80
2017,09,04,15,11,28.90
2017,09,04,15,12,29.00
2017,09,04,15,13,29.10
2017,09,04,15,14,29.20
2017,09,04,15,15,29.20
2017,09,04,15,16,29.20
2017,09,04,15,17,29.20
2017,09,04,15,18,29.20
2017,09,04,15,19,29.30
2017,09,04,15,20,29.30
2017,09,04,15,21,29.30
2017,09,04,15,22,29.30
2017,09,04,15,23,29.20
2017,09,04,15,24,29.20
2017,09,04,15,25,29.30
2017,09,04,15,26,29.30
2017,09,04,15,27,29.30
2017,09,04,15,28,29.30
2017,09,04,15,29,29.30
2017,09,04,15,30,29.20
2017,09,04,15,31,29.20
2017,09,04,15,32,29.20
2017,09,04,15,33,29.20
2017,09,04,15,34,29.20
2017,09,04,15,35,29.20
2017,09,04,15,36,29.30
2017,09,04,15,37,29.30
2017,09,04,15,38,29.30
2017,09,04,15,39,29.20
2017,09,04,15,40,29.30
2017,09,04,15,41,29.30
2017,09,04,15,42,29.30
2017,09,04,15,43,29.40
2017,09,04,15,44,29.40
2017,09,04,15,45,29.50
2017,09,04,15,46,29.50
2017,09,04,15,47,29.60
2017,09,04,15,48,29.70
2017,09,04,15,49,29.80
2017,09,04,15,50,29.90
2017,09,04,15,51,30.00
2017,09,04,15,52,30.00
2017,09,04,15,53,30.10
2017,09,04,15,54,30.10
2017,09,04,15,55,30.10
2017,09,04,15,56,30.10
2017,09,04,15,57,30.00
2017,09,04,15,58,30.00
2017,09,04,15,59,29.90
2017,09,04,16,00,29.90
2017,09,04,16,01,29.90
2017,09,04,16,02,29.90
2017,09,04,16,03,29.90
2017,09,04,16,04,29.90
2017,09,04,16,05,29.90
2017,09,04,16,06,29.90
2017,09,04,16,07,29.80
2017,09,04,16,08,29.80
2017,09,04,16,09,29.80
2017,09,04,16,10,29.80
2017,09,04,16,11,29.90
2017,09,04,16,12,29.90
2017,09,04,16,13,30.00
2017,09,04,16,14,30.00
2017,09,04,16,15,30.00
2017,09,04,16,16,30.00
2017,09,04,16,17,30.00
2017,09,04,16,18,29.90
2017,09,04,16,19,29.90
2017,09,04,16,20,29.80
2017,09,04,16,21,29.80
2017,09,04,16,22,29.80
2017,09,04,16,23,29.80
2017,09,04,16,24,29.80
2017,09,04,16,25,29.80
2017,09,04,16,26,29.80
2017,09,04,16,27,29.80
2017,09,04,16,28,29.90
2017,09,04,16,29,29.90
2017,09,04,16,30,29.90
2017,09,04,16,31,30.00
2017,09,04,16,32,30.00
2017,09,04,16,33,30.10
2017,09,04,16,34,30.20
2017,09,04,16,35,30.20
2017,09,04,16,36,30.30
2017,09,04,16,37,30.30
2017,09,04,16,38,30.30
2017,09,04,16,39,30.30
2017,09,04,16,40,30.30
2017,09,04,16,41,30.40
2017,09,04,16,42,30.40
2017,09,04,16,43,30.40
2017,09,04,16,44,30.40
2017,09,04,16,45,30.40
2017,09,04,16,46,30.50
2017,09,04,16,47,30.50
2017,09,04,16,48,30.60
2017,09,04,16,49,30.60
2017,09,04,16,50,30.70
2017,09,04,16,51,30.70
2017,09,04,16,52,30.80
2017,09,04,16,53,30.80
2017,09,04,16,54,30.80
2017,09,04,16,55,30.80
2017,09,04,16,56,30.80
2017,09,04,16,57,30.90
2017,09,04,16,58,30.90
2017,09,04,16,59,30.90
2017,09,04,17,00,30.90
2017,09,04,17,01,30.90
2017,09,04,17,02,30.90
2017,09,04,17,03,30.90
2017,09,04,17,04,30.90
2017,09,04,17,05,30.80
2017,09,04,17,06,30.80
2017,09,04,17,07,30.80
2017,09,04,17,08,30.80
2017,09,04,17,09,30.80
2017,09,04,17,10,30.80
2017,09,04,17,11,30.80
2017,09,04,17,12,30.80
2017,09,04,17,13,30.80
2017,09,04,17,14,30.70
2017,09,04,17,15,30.70
2017,09,04,17,16,30.70
2017,09,04,17,17,30.70
2017,09,04,17,18,30.70
2017,09,04,17,19,30.60